Regional Weather Roundup
Issued by NWS Lake Charles, LA

Current Version | Previous Version | Text Only | Print | Product List | Glossary On
Versions: 1 2 3 4 5 6 7 8 9 10 11 12 13 14 15 16 17 18 19 20 21 22 23 24 25 26 27 28 29 30 31 32 33 34 35 36 37 38 39 40 41 42 43 44 45 46 47 48 49 50
000
ASUS44 KLCH 022210
RWRLCH
REGIONAL WEATHER ROUNDUP
NATIONAL WEATHER SERVICE LAKE CHARLES LA
500 PM CDT MON MAY 02 2016

Note: "fair" indicates few or no clouds below 12,000 feet with no
significant weather and/or obstructions to visibility.


ACROSS SOUTHEAST TEXAS

CITY           SKY/WX    TMP DP  RH WIND       PRES   REMARKS
BEAUMONT       CLOUDY    74  67  78 N6        29.93F
BEAUMONT CITY  CLOUDY    70  64  81 N8        29.96S
ORANGE         CLOUDY    72  65  79 N6        29.95S
JASPER         CLOUDY    71  62  75 N6        29.98F
$$

ACROSS CENTRAL LOUISIANA

CITY           SKY/WX    TMP DP  RH WIND       PRES   REMARKS
LEESVILLE      NOT AVBL
FULLERTON      MOCLDY    70  64  81 VRB3      29.93F
ALEXANDRIA INT PTSUNNY   71  65  81 NW3       29.94S
ESLER FIELD    CLOUDY    69  65  86 VRB3      29.95F
DERIDDER       MOCLDY    71  66  84 N7        29.97S
OAKDALE        CLOUDY    73  68  83 CALM      29.93F
OPELOUSAS      FAIR     N/A N/A N/A NE3       29.92F
$$

ACROSS SOUTHWEST AND SOUTH CENTRAL LOUISIANA

CITY           SKY/WX    TMP DP  RH WIND       PRES   REMARKS
SULPHUR        CLOUDY    73  69  87 N9        29.94F
LAKE CHARLES   CLOUDY    72  68  87 N10       29.92F
CHENNAULT INT  PTSUNNY   72  66  83 N10       29.92F
CAMERON PHI    NOT AVBL
DEQUINCY       MOCLDY    71  66  84 N5        29.94F
JENNINGS       CLOUDY    75  66  73 N7        29.92S
LAFAYETTE      PTSUNNY   79  66  64 NE5       29.91F
NEW IBERIA     CLOUDY    80  66  62 W3        29.92F
ABBEVILLE      FAIR      78  65  64 CALM      29.92F
PATTERSON      NOT AVBL
SALT POINT       N/A     73  69  87 VRB6      29.90F
$$

SELECTED SITES ACROSS THE REGION

CITY           SKY/WX    TMP DP  RH WIND       PRES   REMARKS
HOUSTON BUSH   PTSUNNY   73  61  65 N12       29.98S
HOUSTON HOBBY  PTSUNNY   75  61  61 N13       29.96F
GALVESTON      CLOUDY    71  67  87 N18       29.94F
COLLEGE STAT   CLOUDY    67  56  67 N13       30.05F
CONROE         CLOUDY    67  59  75 N15G23    30.01S
HUNTSVILLE     CLOUDY    66  57  72 N7        30.04S
LUFKIN         CLOUDY    66  59  78 VRB7      30.00F
SHREVEPORT     PTSUNNY   70  58  65 N9        30.00F
MONROE         LGT RAIN  65  62  90 NW14      29.97F
NATCHEZ MS     CLOUDY    68  64  88 NW7       29.95S
BATON ROUGE    CLOUDY    78  64  61 S5        29.93S
N.O. INTL ARPT CLOUDY    78  72  81 CALM      29.94F
SLIDELL        CLOUDY    79  73  82 S6        29.92F
$$

MARINE REPORTS

STATION/POSITION TIME  SKY/WX   TEMP    WIND        PRES    VSBY
                                AIR SEA DIR/SP/G
                 (UTC)          (F)     (DEG/KT/KT) (MB)    (MI)
BUOY 30 S HIGH I 2150            71 76  360/ 17/ 19 1012.7F
WVE H/P(F/S)=  4/ 8

SEA RIM ST PARK  2200            71      20/ 11/ 12 1013.9F
PORT ARTHUR      2100               76   10/  9/ 11 1014.0F
SABINE PASS N    2100            70 78   10/ 15/ 16 1015.2F
TEXAS POINT      NOT AVBL
CALCASIEU PASS   2100            72 77   10/ 12/ 14 1012.7F
LK CHARLES BEACH 2100            68 74              1013.9F
MARSH ISLAND     2100            74     220/  5/  7   N/A
FRESH WATER LOCK 2100            74 74  360/  5/  6 1013.9F
AMERADA PASS     2100            72 71  110/  5/  8 1012.7F
$$



USA.gov is the U.S. government's official web portal to all federal, state and local government web resources and services.